Time,TemperatureF,DewpointF,PressureIn,WindDirection,WindDirectionDegrees,WindSpeedMPH,WindSpeedGustMPH,Humidity,HourlyPrecipIn,Conditions,Clouds,dailyrainin,SoftwareType,DateUTC
2013-08-22 00:07:00,72.1,49.0,29.72,South,173,0.0,1.0,44,0.00,,,0.00,weatherlink.com 1.10,2013-08-22 06:07:00,
2013-08-22 00:22:00,71.4,49.0,29.72,South,173,0.0,0.0,46,0.00,,,0.00,weatherlink.com 1.10,2013-08-22 06:22:00,
2013-08-22 00:37:00,70.5,49.0,29.73,South,173,0.0,0.0,47,0.00,,,0.00,weatherlink.com 1.10,2013-08-22 06:37:00,
2013-08-22 00:52:00,69.9,49.0,29.73,SSE,163,0.0,0.0,47,0.00,,,0.00,weatherlink.com 1.10,2013-08-22 06:52:00,
2013-08-22 01:08:00,70.2,48.0,29.73,SSE,163,0.0,0.0,46,0.00,,,0.00,weatherlink.com 1.10,2013-08-22 07:08:00,
2013-08-22 01:22:00,70.4,48.0,29.73,SSE,163,0.0,0.0,45,0.00,,,0.00,weatherlink.com 1.10,2013-08-22 07:22:00,
2013-08-22 01:37:00,71.2,47.0,29.74,SSE,163,0.0,0.0,43,0.00,,,0.00,weatherlink.com 1.10,2013-08-22 07:37:00,
2013-08-22 01:52:00,71.7,47.0,29.73,SSE,163,0.0,0.0,42,0.00,,,0.00,weatherlink.com 1.10,2013-08-22 07:52:00,
2013-08-22 02:07:00,71.8,48.0,29.73,South,169,0.0,2.0,43,0.00,,,0.00,weatherlink.com 1.10,2013-08-22 08:07:00,
2013-08-22 02:22:00,71.7,48.0,29.73,South,169,0.0,1.0,43,0.00,,,0.00,weatherlink.com 1.10,2013-08-22 08:22:00,
2013-08-22 02:37:00,71.6,47.0,29.73,South,175,1.0,2.0,42,0.00,,,0.00,weatherlink.com 1.10,2013-08-22 08:37:00,
2013-08-22 02:52:00,71.4,48.0,29.73,South,184,0.0,3.0,43,0.00,,,0.00,weatherlink.com 1.10,2013-08-22 08:52:00,
2013-08-22 03:07:00,71.0,48.0,29.73,South,174,0.0,3.0,44,0.00,,,0.00,weatherlink.com 1.10,2013-08-22 09:07:00,
2013-08-22 03:22:00,70.0,48.0,29.73,South,175,0.0,1.0,46,0.00,,,0.00,weatherlink.com 1.10,2013-08-22 09:22:00,
2013-08-22 03:37:00,68.7,48.0,29.73,WNW,302,0.0,1.0,48,0.00,,,0.00,weatherlink.com 1.10,2013-08-22 09:37:00,
2013-08-22 03:52:00,68.1,48.0,29.73,North,355,0.0,0.0,49,0.00,,,0.00,weatherlink.com 1.10,2013-08-22 09:52:00,
2013-08-22 04:07:00,67.5,48.0,29.73,NNE,29,0.0,0.0,50,0.00,,,0.00,weatherlink.com 1.10,2013-08-22 10:07:00,
2013-08-22 04:22:00,66.5,48.0,29.73,NNE,29,0.0,0.0,52,0.00,,,0.00,weatherlink.com 1.10,2013-08-22 10:22:00,
2013-08-22 04:37:00,65.9,49.0,29.73,NNE,29,0.0,0.0,54,0.00,,,0.00,weatherlink.com 1.10,2013-08-22 10:37:00,
2013-08-22 06:37:00,63.8,49.0,29.75,South,191,0.0,0.0,58,0.00,,,0.00,weatherlink.com 1.10,2013-08-22 12:37:00,
2013-08-22 06:52:00,63.6,49.0,29.75,South,191,0.0,0.0,59,0.00,,,0.00,weatherlink.com 1.10,2013-08-22 12:52:00,
2013-08-22 07:07:00,64.1,49.0,29.75,NE,41,0.0,0.0,59,0.00,,,0.00,weatherlink.com 1.10,2013-08-22 13:07:00,
2013-08-22 07:22:00,64.6,48.0,29.76,NE,55,0.0,0.0,56,0.00,,,0.00,weatherlink.com 1.10,2013-08-22 13:22:00,
2013-08-22 07:37:00,65.5,49.0,29.77,SSE,168,0.0,0.0,55,0.00,,,0.00,weatherlink.com 1.10,2013-08-22 13:37:00,
2013-08-22 07:52:00,67.0,50.0,29.77,West,261,0.0,0.0,54,0.00,,,0.00,weatherlink.com 1.10,2013-08-22 13:52:00,
2013-08-22 08:07:00,70.7,50.0,29.77,West,261,0.0,0.0,48,0.00,,,0.00,weatherlink.com 1.10,2013-08-22 14:07:00,
2013-08-22 08:22:00,73.9,47.0,29.77,North,360,0.0,0.0,38,0.00,,,0.00,weatherlink.com 1.10,2013-08-22 14:22:00,
2013-08-22 08:38:00,75.0,45.0,29.77,South,170,1.0,3.0,34,0.00,,,0.00,weatherlink.com 1.10,2013-08-22 14:38:00,
2013-08-22 08:53:00,75.8,45.0,29.78,SE,136,0.0,3.0,33,0.00,,,0.00,weatherlink.com 1.10,2013-08-22 14:53:00,
2013-08-22 09:08:00,76.9,46.0,29.78,SSE,165,0.0,3.0,33,0.00,,,0.00,weatherlink.com 1.10,2013-08-22 15:08:00,
2013-08-22 09:23:00,77.8,45.0,29.78,ESE,110,0.0,5.0,31,0.00,,,0.00,weatherlink.com 1.10,2013-08-22 15:23:00,
2013-08-22 09:38:00,78.5,44.0,29.78,SSE,153,0.0,4.0,29,0.00,,,0.00,weatherlink.com 1.10,2013-08-22 15:38:00,
2013-08-22 09:53:00,78.5,45.0,29.78,South,173,0.0,5.0,30,0.00,,,0.00,weatherlink.com 1.10,2013-08-22 15:53:00,
2013-08-22 10:08:00,78.9,46.0,29.78,SSE,155,1.0,4.0,31,0.00,,,0.00,weatherlink.com 1.10,2013-08-22 16:08:00,
2013-08-22 10:23:00,80.4,46.0,29.78,SE,140,1.0,6.0,30,0.00,,,0.00,weatherlink.com 1.10,2013-08-22 16:23:00,
2013-08-22 10:38:00,81.4,46.0,29.78,SSE,155,0.0,5.0,29,0.00,,,0.00,weatherlink.com 1.10,2013-08-22 16:38:00,
2013-08-22 10:53:00,81.9,47.0,29.77,SW,214,1.0,6.0,29,0.00,,,0.00,weatherlink.com 1.10,2013-08-22 16:53:00,
2013-08-22 11:08:00,82.3,48.0,29.77,SSE,162,0.0,9.0,30,0.00,,,0.00,weatherlink.com 1.10,2013-08-22 17:08:00,
2013-08-22 11:23:00,83.1,49.0,29.77,South,175,3.0,6.0,31,0.00,,,0.00,weatherlink.com 1.10,2013-08-22 17:23:00,
2013-08-22 11:38:00,83.4,50.0,29.76,South,173,0.0,6.0,31,0.00,,,0.00,weatherlink.com 1.10,2013-08-22 17:38:00,
2013-08-22 11:53:00,83.7,49.0,29.75,West,267,3.0,6.0,30,0.00,,,0.00,weatherlink.com 1.10,2013-08-22 17:53:00,
2013-08-22 12:08:00,84.6,50.0,29.75,South,171,1.0,6.0,30,0.00,,,0.00,weatherlink.com 1.10,2013-08-22 18:08:00,
2013-08-22 12:23:00,85.5,51.0,29.74,SSW,192,4.0,4.0,30,0.00,,,0.00,weatherlink.com 1.10,2013-08-22 18:23:00,
2013-08-22 12:38:00,85.6,51.0,29.73,SSE,157,0.0,6.0,30,0.00,,,0.00,weatherlink.com 1.10,2013-08-22 18:38:00,
2013-08-22 12:53:00,85.6,52.0,29.72,South,189,0.0,7.0,31,0.00,,,0.00,weatherlink.com 1.10,2013-08-22 18:53:00,
2013-08-22 13:08:00,87.3,52.0,29.72,SSW,198,0.0,3.0,30,0.00,,,0.00,weatherlink.com 1.10,2013-08-22 19:08:00,
2013-08-22 13:23:00,88.5,51.0,29.71,South,186,3.0,7.0,28,0.00,,,0.00,weatherlink.com 1.10,2013-08-22 19:23:00,
2013-08-22 13:38:00,88.7,52.0,29.70,South,190,2.0,9.0,28,0.00,,,0.00,weatherlink.com 1.10,2013-08-22 19:38:00,
2013-08-22 13:53:00,88.0,51.0,29.69,SW,222,1.0,7.0,28,0.00,,,0.00,weatherlink.com 1.10,2013-08-22 19:53:00,
2013-08-22 14:08:00,88.8,52.0,29.69,South,175,1.0,5.0,28,0.00,,,0.00,weatherlink.com 1.10,2013-08-22 20:08:00,
2013-08-22 14:23:00,89.6,50.0,29.68,SW,217,1.0,10.0,26,0.00,,,0.00,weatherlink.com 1.10,2013-08-22 20:23:00,
2013-08-22 14:38:00,89.8,50.0,29.68,SW,223,0.0,7.0,25,0.00,,,0.00,weatherlink.com 1.10,2013-08-22 20:38:00,
2013-08-22 14:54:00,90.3,51.0,29.67,South,172,7.0,13.0,26,0.00,,,0.00,weatherlink.com 1.10,2013-08-22 20:54:00,
2013-08-22 15:09:00,89.6,51.0,29.66,SSW,197,2.0,7.0,27,0.00,,,0.00,weatherlink.com 1.10,2013-08-22 21:09:00,
2013-08-22 15:24:00,89.8,51.0,29.65,SW,219,0.0,13.0,26,0.00,,,0.00,weatherlink.com 1.10,2013-08-22 21:24:00,
2013-08-22 15:39:00,90.0,49.0,29.65,South,186,2.0,10.0,24,0.00,,,0.00,weatherlink.com 1.10,2013-08-22 21:39:00,
2013-08-22 15:54:00,90.9,49.0,29.64,SSW,205,0.0,10.0,24,0.00,,,0.00,weatherlink.com 1.10,2013-08-22 21:54:00,
2013-08-22 16:09:00,89.7,50.0,29.63,SE,128,0.0,10.0,25,0.00,,,0.00,weatherlink.com 1.10,2013-08-22 22:09:00,
2013-08-22 16:24:00,91.1,48.0,29.63,West,266,10.0,12.0,23,0.00,,,0.00,weatherlink.com 1.10,2013-08-22 22:24:00,
2013-08-22 16:39:00,90.7,48.0,29.62,South,191,1.0,5.0,23,0.00,,,0.00,weatherlink.com 1.10,2013-08-22 22:39:00,
2013-08-22 16:54:00,91.1,50.0,29.62,NW,325,1.0,7.0,24,0.00,,,0.00,weatherlink.com 1.10,2013-08-22 22:54:00,
2013-08-22 17:09:00,91.5,48.0,29.62,WSW,242,0.0,9.0,22,0.00,,,0.00,weatherlink.com 1.10,2013-08-22 23:09:00,
2013-08-22 17:24:00,92.0,47.0,29.61,SW,216,1.0,6.0,21,0.00,,,0.00,weatherlink.com 1.10,2013-08-22 23:24:00,
2013-08-22 17:39:00,90.4,45.0,29.61,WNW,292,1.0,7.0,21,0.00,,,0.00,weatherlink.com 1.10,2013-08-22 23:39:00,
2013-08-22 17:54:00,90.4,45.0,29.61,SSE,168,1.0,7.0,21,0.00,,,0.00,weatherlink.com 1.10,2013-08-22 23:54:00,
2013-08-22 18:09:00,89.3,45.0,29.60,SSW,205,1.0,3.0,21,0.00,,,0.00,weatherlink.com 1.10,2013-08-23 00:09:00,
2013-08-22 18:24:00,88.8,44.0,29.60,SSW,197,0.0,4.0,21,0.00,,,0.00,weatherlink.com 1.10,2013-08-23 00:24:00,
2013-08-22 18:39:00,88.6,45.0,29.60,SSW,207,2.0,7.0,22,0.00,,,0.00,weatherlink.com 1.10,2013-08-23 00:39:00,
2013-08-22 18:54:00,87.6,44.0,29.60,South,184,5.0,8.0,22,0.00,,,0.00,weatherlink.com 1.10,2013-08-23 00:54:00,
2013-08-22 19:09:00,86.9,44.0,29.60,South,187,2.0,6.0,22,0.00,,,0.00,weatherlink.com 1.10,2013-08-23 01:09:00,
2013-08-22 19:24:00,85.9,44.0,29.61,SSW,192,2.0,5.0,23,0.00,,,0.00,weatherlink.com 1.10,2013-08-23 01:24:00,
2013-08-22 19:39:00,84.8,44.0,29.61,South,171,2.0,4.0,24,0.00,,,0.00,weatherlink.com 1.10,2013-08-23 01:39:00,
2013-08-22 19:54:00,83.7,44.0,29.62,SSE,157,0.0,2.0,25,0.00,,,0.00,weatherlink.com 1.10,2013-08-23 01:54:00,
2013-08-22 20:09:00,83.0,42.0,29.63,SSE,161,0.0,1.0,23,0.00,,,0.00,weatherlink.com 1.10,2013-08-23 02:09:00,
2013-08-22 20:24:00,82.0,41.0,29.64,SSE,161,0.0,0.0,23,0.00,,,0.00,weatherlink.com 1.10,2013-08-23 02:24:00,
2013-08-22 20:39:00,80.7,41.0,29.64,SSE,161,0.0,0.0,24,0.00,,,0.00,weatherlink.com 1.10,2013-08-23 02:39:00,
2013-08-22 20:54:00,79.8,41.0,29.64,SSE,155,0.0,0.0,25,0.00,,,0.00,weatherlink.com 1.10,2013-08-23 02:54:00,
2013-08-22 21:09:00,79.1,41.0,29.66,SE,146,0.0,0.0,26,0.00,,,0.00,weatherlink.com 1.10,2013-08-23 03:09:00,
2013-08-22 21:24:00,79.0,41.0,29.66,East,82,0.0,1.0,26,0.00,,,0.00,weatherlink.com 1.10,2013-08-23 03:24:00,
2013-08-22 21:39:00,78.5,43.0,29.67,East,82,0.0,0.0,28,0.00,,,0.00,weatherlink.com 1.10,2013-08-23 03:39:00,
2013-08-22 21:54:00,77.5,41.0,29.68,WSW,254,0.0,2.0,27,0.00,,,0.00,weatherlink.com 1.10,2013-08-23 03:54:00,
2013-08-22 22:09:00,76.6,42.0,29.68,SW,220,0.0,0.0,29,0.00,,,0.00,weatherlink.com 1.10,2013-08-23 04:09:00,
2013-08-22 22:24:00,75.5,40.0,29.68,SW,219,0.0,1.0,28,0.00,,,0.00,weatherlink.com 1.10,2013-08-23 04:24:00,
2013-08-22 22:39:00,75.7,39.0,29.68,South,178,0.0,1.0,27,0.00,,,0.00,weatherlink.com 1.10,2013-08-23 04:39:00,
2013-08-22 22:54:00,75.2,39.0,29.68,SSE,164,0.0,0.0,27,0.00,,,0.00,weatherlink.com 1.10,2013-08-23 04:54:00,
2013-08-22 23:09:00,74.2,39.0,29.69,ESE,113,0.0,0.0,28,0.00,,,0.00,weatherlink.com 1.10,2013-08-23 05:09:00,
2013-08-22 23:24:00,74.0,39.0,29.69,SSE,149,0.0,0.0,28,0.00,,,0.00,weatherlink.com 1.10,2013-08-23 05:24:00,
2013-08-22 23:39:00,74.2,39.0,29.69,East,86,0.0,2.0,28,0.00,,,0.00,weatherlink.com 1.10,2013-08-23 05:39:00,
2013-08-22 23:54:00,74.8,38.0,29.69,East,86,2.0,3.0,26,0.00,,,0.00,weatherlink.com 1.10,2013-08-23 05:54:00,